Regional Weather Roundup
Issued by NWS

Home | Current Version | Previous Version | Text Only | Print | Product List | Glossary Off
Versions: 1 2 3 4 5 6 7 8 9 10 11 12 13 14 15 16 17 18 19 20 21 22 23 24 25 26 27 28 29 30 31 32 33 34 35 36 37 38 39 40 41 42 43 44 45 46 47 48 49 50

000
ASUS43 KMKX 272121
RWRWI

WISCONSIN REGIONAL WEATHER ROUNDUP
NATIONAL WEATHER SERVICE MILWAUKEE/SULLIVAN WI
400 PM CDT FRI MAY 27 2016

NOTE: "FAIR" INDICATES FEW OR NO CLOUDS BELOW 12,000 FEET WITH NO
SIGNIFICANT WEATHER AND/OR OBSTRUCTIONS TO VISIBILITY.

WIZ001-002-006>008-014>016-023>028-272200-
NORTHWEST WISCONSIN

CITY           SKY/WX    TMP DP  RH WIND       PRES   REMARKS
SUPERIOR ARPT  LGT RAIN  46  46  99 NE5       29.88F
ASHLAND        LGT RAIN  50  49  96 N7        29.89R FOG
HAYWARD        LGT RAIN  64  58  80 NE8       29.83F
SIREN          LGT RAIN  64  60  88 NE6       29.81S
CUMBERLAND     LGT RAIN  63  59  88 NE12      29.80F
RICE LAKE      HVY RAIN  64  61  89 N6        29.81F
CHETEK         RAIN      64  63  97 N3        29.78F
LADYSMITH      DRIZZLE   65  62  90 NE6       29.81F
EAU CLAIRE     LGT RAIN  68  65  90 NE9       29.75F
MENOMONIE      LGT RAIN  65  65  99 NW7       29.77F
NEW RICHMOND   LGT RAIN  66  64  93 E6        29.77F
OSCEOLA        LGT RAIN  67  67 100 N7        29.79F
$$

WIZ003>005-009-010-017-018-272200-
NORTH CENTRAL WISCONSIN

CITY           SKY/WX    TMP DP  RH WIND       PRES   REMARKS
MANITOWISH WTR NOT AVBL
ARBOR VITAE    LGT RAIN  72  62  69 SE7       29.84F
WOODRUFF       LGT RAIN  72  62  69 SE7       29.84F
RHINELANDER    CLOUDY    71  60  68 E15       29.85F
EAGLE RIVER      N/A     72  57  60 E10       29.85F
LAND O LAKES   CLOUDY    73  59  59 SE9       29.87F
PHILLIPS       CLOUDY    65  62  89 NW5       29.83S
TOMAHAWK       LGT RAIN  69  60  74 E5        29.84S
MEDFORD        CLOUDY    71  63  76 E9G20     29.80F
MERRILL        CLOUDY    71  59  66 SE9       29.84S
$$

WIZ029-030-035-036-043>047-272200-
CENTRAL WISCONSIN

CITY           SKY/WX    TMP DP  RH WIND       PRES   REMARKS
WAUSAU         CLOUDY    72  62  71 SE16      29.81F
MOSINEE        PTSUNNY   70  64  83 E7        29.84F
MARSHFIELD     CLOUDY    73  62  68 SE10      29.79F
STEVENS POINT  CLOUDY    69  64  82 E10       29.82F
WAUPACA        MOSUNNY   75  68  77 E6        29.82F
WAUTOMA        LGT RAIN  74  66  76 E7        29.80F
WISC RAPIDS    LGT RAIN  73  63  70 SE8       29.81F
CAMP DOUGLAS   CLOUDY    73  73 100 VRB3      29.78F
$$

WIZ011>013-019>022-031-037>040-048>050-272200-
NORTHEAST WISCONSIN

CITY           SKY/WX    TMP DP  RH WIND       PRES   REMARKS
ANTIGO         PTSUNNY   67  65  90 SE13G18   29.86F
SHAWANO        LGT RAIN  71  66  86 E8        29.85F
OCONTO         CLOUDY   N/A N/A N/A E6        29.85F
STURGEON BAY   NOT AVBL
GREEN BAY      CLOUDY    70  66  87 NE8       29.83F FOG
MANITOWOC      CLOUDY    61  59  93 VRB3      29.87F FOG
APPLETON       CLOUDY    73  64  73 E8        29.81F
CLINTONVILLE   PTSUNNY   70  64  83 E8        29.83F
OSHKOSH        CLOUDY    74  64  71 E7        29.81F
$$

WIZ032>034-041-042-053>061-272200-
SOUTHWEST WISCONSIN

CITY           SKY/WX    TMP DP  RH WIND       PRES   REMARKS
LA CROSSE      CLOUDY    76  63  64 S12       29.74F
SPARTA         CLOUDY    76  65  67 SE8       29.77F
VIROQUA        PTSUNNY   74  64  73 SE7       29.78S
BOSCOBEL       CLOUDY    80  65  59 VRB6      29.75F HX  82
PRAIRIE DU CHI MOSUNNY   77  63  62 SE7       29.73F
PLATTEVILLE    CLOUDY    76  68  75 S14       29.78S
$$

WIZ056-057-062-063-064-067-068-272200-
SOUTH CENTRAL WISCONSIN

CITY           SKY/WX    TMP DP  RH WIND       PRES   REMARKS
REEDSBURG      CLOUDY    71  69  96 E5        29.79R
BARABOO/DELLS  CLOUDY    71  67  88 SE6       29.79F
LONE ROCK      CLOUDY    74  68  81 SW3       29.78F
MINERAL POINT  CLOUDY    75  68  78 SE15      29.78F
MADISON        CLOUDY    78  65  63 SW6       29.77F HX  80
MIDDLETON      CLOUDY    74  68  81 SW8       29.80S
WATERTOWN      CLOUDY    77  68  72 S8        29.79F
MONROE         CLOUDY    70  64  83 SW12      29.80F
JANESVILLE     SHOWER    72  68  88 SW16G22   29.81R
$$

WIZ051-052-058>065-066-070>072-272200-
SOUTHEAST WISCONSIN

CITY           SKY/WX    TMP DP  RH WIND       PRES   REMARKS
MILWAUKEE      CLOUDY    71  63  75 SE14      29.83F
WAUKESHA       PTSUNNY   75  64  69 SE15G21   29.83F
MILWAUKEE/TIMM MOSUNNY   75  61  60 SE15      29.83F
RACINE         PTSUNNY   70  62  76 SE10      29.85F
BURLINGTON     LGT RAIN  71  66  85 SE3       29.83R
KENOSHA        PTSUNNY   75  65  70 SE15      29.83F
FOND DU LAC    CLOUDY    72  67  84 E9G21     29.81S
SHEBOYGAN      CLOUDY    68  63  84 SE9       29.85S HAZE
WEST BEND      CLOUDY    73  64  73 SE7       29.83S
JUNEAU         CLOUDY    76  69  77 E7        29.81F
$$

LSZ147-162-272200-
LAKE SUPERIOR

STATION/POSITION TIME  TEMP    WIND        PRES    WAVE
                       AIR SEA DIR/SP/G            HT/PER
                 (UTC) (F)     (DEG/KT/KT) (MB)    (FT/S)
W MID LAKE BUOY  2050   41 38   60/ 14/ 16 1012.8F   0
DEVILS ISLAND    2100   45      70/ 12/ 16 1012.4F
SAXON HARBOR     2040   45     360/  3/  4 1011.2F
$$

LMZ867-665-643>646-272200-
LAKE MICHIGAN

STATION/POSITION TIME  TEMP    WIND        PRES    WAVE
                       AIR SEA DIR/SP/G            HT/PER
                 (UTC) (F)     (DEG/KT/KT) (MB)    (FT/S)
CHAMBERS ISLAND  2000   59      80/  1/  7 1012.9F
N MID LAKE BUOY  2050   49 47  290/  2/  4 1012.9R   0
NORTHPORT PIER   2000   53      80/  1/ 10 1012.2F
SISTER BAY       2035   60        CALM       N/A
ALGOMA LAKESHORE 2047          110/  6/  7   N/A
KEWAUNEE LAKESHO 2000   52     100/  4/  6 1011.0F
SHEBOYGAN LAKESH 2100   56     170/  6/  7 1011.4F
PORT WASHINGTON  1900   63     140/  4/  5 1012.2F
S MID LAKE BUOY  2050   57 51  120/ 10/ 10 1011.1F   1
KENOSHA   LAKESH 2100   62     170/  8/ 18 1010.2F
$$

TC  - TEMPERATURE IN CELSIUS
VSB - VISIBILITY IN STATUTE MILES
WCI - WIND CHILL INDEX
HX  - HEAT INDEX





USA.gov is the U.S. government's official web portal to all federal, state and local government web resources and services.